STARLINK-34533, 64715

Orbit data source: Space-Track

STARLINK-34533, 64715 is a payload satellite owned by SpaceX/Seattle (US) in LEO that was launched on Sat, 28 Jun 2025 UTC via an FALCON 9 launch vehicle from the Air Force Western Test Range (AFWTR). Payload-class satellites include a variety of spacecraft equipped with specific instruments for various scientific and technological missions. These include communications satellites like Starlink; space stations such as the ISS; scientific satellites like the Hubble; Earth observation satellites from companies like Planet Labs, Umbra, and HawkEye 360; GPS; miniature CubeSats for education and research; and military/defense satellites.

Loading next visibility...
Identifier
64715, 2025-142V
Orbit
LEO
Country
Flag of USUS
Related business
Manufacturer
SpaceX/Seattle
Mission
Operational Commercial Communications
Bus & Motor
STARLINK V2MO, Unknown motor
Mass
575 kg wet, ~530 kg dry
Launch date (UTC)
2025-06-28 (1 year ago)
Launch vehicle
FALCON 9
Launch site
Air Force Western Test Range (AFWTR)
Object type
Payload
Rocket body
Debris
Shape & HBR
Box + 1 Pan, 17.7 m
Radar Cross Section
41.120 m², Large (>1 m²)

Expand to show TLE details & history
Last TLE update: 12 hours ago

TLE from 12 hours ago
0 STARLINK-34533
1 64715U 25142V   26264.18601741  .00010261  00000-0  36088-3 0  9993
2 64715  70.0029 179.1732 0002534 286.2040  73.8856 15.29583147 68803
Epoch: 2026-09-21T04:27Z
TLE epoch observation values (Epoch: 2026-09-21T04:27:51.904Z)
Latitude
-0.00003°
Longitude
112.13746°
Altitude
479.033 km
Speed
7.627 km/s
True Right ascension
11h 56m 41s
True Declination
0° 00' 00"
Sunlit
Object was in daylight at epoch
Visualization orbit readout
Latitude
Unknown
Longitude
Unknown
Altitude
Unknown
Speed
Unknown
Apparent Right ascension
Unknown
Apparent Declination
Unknown
Sunlit
N/A
Visualization observer readout
Local Sidereal Time
09:57:36
Azimuth
Unknown
Elevation
Unknown
Doppler factor
Unknown
Orbital elements
Apogee altitude
476.713 km
Perigee altitude
473.24 km
Semi-major axis
6,853.114 km
Eccentricity
0.00025
Inclination
70.0029°
RAAN
179.1732°
Arg. of periapsis
286.204°
True anomaly
73.9135°
Mean anomaly
73.8856°
Eccentric anomaly
73.89955°
Mean motion
3.8257 °/min
Orbital period
94.1 mins
BSTAR
0.00036088
Loading maneuver chart data...
Computing Atmospheric mass density...
Loading historical data...
Loading historical data...
Loading historical data...
Loading historical data...
Loading historical data...
Loading historical data...
Loading historical data...

Documentation

Showing up to 5 results
|